User: anonymous   Login
Location: Caltech
(34.1382°N, 118.1253°W)
Time: 23:54:00
(UTC-07:00)
Language:

BREEZE M DEB (TANK) - Orbit

View from above orbital plane
View from above orbital plane
View from above satellite
View from above satellite

Ground track
Ground track

The orbit data is extracted from the following two-line orbital elements,

1 33437U 08057B   14304.33768428  .00002012  00000-0  58378-3 0  1185
2 33437 049.5764 344.6356 5007901 100.0448 355.8675 05.56148695120211
Epoch (UTC): 31 October 2014 08:06:15
Eccentricity: 0.5007901
inclination: 49.5764°
perigee height: 339 km
apogee height: 13817 km
right ascension of ascending node: 344.6356°
argument of perigee: 100.0448°
revolutions per day: 5.56148695
mean anomaly at epoch: 355.8675°
orbit number at epoch: 12021

The dashed part of the orbit path shows where the satellite is in the earth's shadow,  

DLR